Location: C�mpuri de-Sus
(45.9500°N, 22.5500°E)
Time: 13:40:14
(UTC+00:00)

MOS 1-B - Pass Details

Date: 24 October 2021
Orbit: 905 x 913 km, 99.4° (Epoch: 06 December)

Event Time Altitude Azimuth Distance (km) Brightness Sun altitude
Rises 16:13:35 0° 163° (SSE) 3,527 7.3 -8.5°
Reaches altitude 10° 16:15:59 10° 164° (SSE) 2,588 6.7 -8.9°
Maximum altitude 16:21:47 88° 254° (WSW) 916 4.4 -9.9°
Drops below altitude 10° 16:27:36 10° 344° (NNW) 2,601 6.9 -10.9°
Sets 16:30:01 0° 345° (NNW) 3,545 7.6 -11.4°
